Henderson, NV

8:03 AM PDT on September 20, 2017 (GMT -0700)
Henderson

Weather History for KHND - May, 2013

Change the Weather History Date:

Wednesday, May 1, 2013

  Actual Average (KLAS) Record (KLAS)
Temperature  
Mean Temperature 70 °F -  
Max Temperature 79 °F 83 °F 102 °F (1947)
Min Temperature 61 °F 57 °F 41 °F (1967)
Cooling Degree Days 5    
Growing Degree Days 20 (Base 50)    
Moisture  
Dew Point -3 °F    
Average Humidity 6    
Maximum Humidity 10    
Minimum Humidity 4    
Precipitation  
Precipitation 0.00 in - - ()
Sea Level Pressure  
Sea Level Pressure 30.06 in    
Wind  
Wind Speed 19 mph (NNE)    
Max Wind Speed 24 mph    
Max Gust Speed 30 mph    
Visibility 10 miles    
Events      
Averages and records for this station are not official NWS values.
T = Trace of Precipitation, MM = Missing Value Source: NWS Daily Summary

Daily Weather History Graph

Daily Weather History Graph

Search for Another Location

Airport or City:

Trip Planner

Search our weather history database for the weather conditions in past years. The results will help you decide how hot, cold, wet, or windy it might be!

Date:

Astronomy

May. 01, 2013 Rise Set
Actual Time 5:47 AM PDT 7:27 PM PDT
Civil Twilight 5:20 AM PDT 7:55 PM PDT
Nautical Twilight 4:47 AM PDT 8:28 PM PDT
Astronomical Twilight 4:12 AM PDT 9:03 PM PDT
Moon 12:40 AM PDT (5/1) 11:30 AM PDT (5/1)
Length of Visible Light 14h 35m
Length of Day
13h 40m
Waning Gibbous, 58% of the Moon is Illuminated
May 1
Waning Gibbous
May 2
Last Quarter
May 9
New
May 17
First Quarter
May 24
Full

Hourly Weather History & Observations

Time (PDT) Temp. Dew Point Humidity Pressure Visibility Wind Dir Wind Speed Gust Speed Precip Events Conditions
12:56 AM 77.9 °F 16.2 °F 10% 29.73 in 10.0 mi NNE 18.4 mph 27.6 mph N/A   Clear
1:56 AM 73.9 °F 8.1 °F 8% 29.79 in 10.0 mi NNE 21.9 mph 27.6 mph N/A   Clear
2:56 AM 70.9 °F 5.0 °F 8% 29.83 in 10.0 mi NNE 15.0 mph - N/A   Clear
3:56 AM 68.9 °F -4.9 °F 5% 29.88 in 10.0 mi NNE 20.7 mph 29.9 mph N/A   Clear
4:56 AM 66.9 °F -8.0 °F 5% 29.92 in 10.0 mi NNE 16.1 mph - N/A   Clear
5:56 AM 64.9 °F -9.9 °F 5% 29.97 in 10.0 mi NNE 24.2 mph 28.8 mph N/A   Clear
6:56 AM 64.9 °F -9.9 °F 5% 30.01 in 10.0 mi North 18.4 mph - N/A   Clear
7:56 AM 65.8 °F -9.9 °F 5% 30.05 in 10.0 mi NNE 19.6 mph 26.5 mph N/A   Clear
8:56 AM 68.0 °F -8.9 °F 4% 30.08 in 10.0 mi North 21.9 mph 28.8 mph N/A   Clear
9:56 AM 70.0 °F -9.9 °F 4% 30.09 in 10.0 mi North 21.9 mph 26.5 mph N/A   Clear
11:56 AM 73.9 °F -6.9 °F 4% 30.11 in 10.0 mi NE 19.6 mph 27.6 mph N/A   Clear
12:56 PM 75.9 °F -6.0 °F 4% 30.11 in 10.0 mi NE 18.4 mph 23.0 mph N/A   Clear
2:56 PM 79.0 °F -4.0 °F 4% 30.09 in 10.0 mi NE 10.4 mph - N/A   Clear
4:56 PM 78.8 °F -4.0 °F 4% 30.14 in 10.0 mi NNE 17.3 mph - N/A   Clear
5:56 PM 79.0 °F -4.0 °F 4% 30.09 in 10.0 mi NE 12.7 mph - N/A   Clear
6:56 PM 73.9 °F 0.1 °F 6% 30.12 in 10.0 mi NE 17.3 mph 26.5 mph N/A   Clear
7:56 PM 70.0 °F 0.1 °F 6% 30.16 in 10.0 mi NNE 16.1 mph 25.3 mph N/A   Clear
8:56 PM 66.9 °F -0.9 °F 7% 30.21 in 10.0 mi NE 18.4 mph 27.6 mph N/A   Clear
9:56 PM 63.9 °F -1.8 °F 7% 30.26 in 10.0 mi NNE 20.7 mph 28.8 mph N/A   Clear
10:56 PM 61.9 °F -1.8 °F 8% 30.29 in 10.0 mi NE 17.3 mph 27.6 mph N/A   Clear
11:56 PM 61.0 °F 0.1 °F 9% 30.31 in 10.0 mi NE 17.3 mph 25.3 mph N/A   Clear